Location: Newark
(47.5833°N, 8.1500°E)
Time: 10:14:04
(UTC+00:00)

Altair - Pass Details

Date: 03 November 2020
Orbit: 1502 x 1682 km, 47.2° (Epoch: 25 November)

Event Time Altitude Azimuth Distance (km) Brightness Sun altitude
Exits shadow 03:31:06 38° 215° (SW) 2,166 7.9 -27.9°
Maximum altitude 03:34:53 62° 153° (SSE) 1,688 7.7 -27.3°
Drops below altitude 10° 03:44:11 10° 75° (ENE) 3,768 10.5 -25.7°
Sets 03:47:20 0° 73° (ENE) 4,778 11.4 -25.2°
